Location: *
(46.3500°N, 10.9000°E)
Time: 22:32:28
(UTC+00:00)

Explorer 7 - Pass Details

Date: 27 April 2021
Orbit: 484 x 677 km, 50.3° (Epoch: 05 May)

Event Time Altitude Azimuth Distance (km) Brightness Sun altitude
Rises 21:05:59 0° 292° (WNW) 2,694 11.2 -23.0°
Reaches altitude 10° 21:08:09 10° 293° (WNW) 1,830 10.2 -23.2°
Enters shadow 21:12:17 85° 350° (N) 584 6.8 -23.6°
Maximum altitude 21:12:20 86° 21° (NNE) 584 - -23.6°
Drops below altitude 10° 21:16:49 10° 112° (ESE) 1,949 - -24.0°
Sets 21:19:11 0° 113° (ESE) 2,884 - -24.2°
